CST,Max TemperatureF,Mean TemperatureF,Min TemperatureF,Max Dew PointF,MeanDew PointF,Min DewpointF,Max Humidity, Mean Humidity, Min Humidity, Max Sea Level PressureIn, Mean Sea Level PressureIn, Min Sea Level PressureIn, Max VisibilityMiles, Mean VisibilityMiles, Min VisibilityMiles, Max Wind SpeedMPH, Mean Wind SpeedMPH, Max Gust SpeedMPH,PrecipitationIn, CloudCover, Events, WindDirDegrees
2014-2-1,11,1,-10,6,-2,-12,95,82,69,30.32,30.19,29.90,10,10,10,26,13,30,0.00,2,,302
2014-2-2,19,4,-12,10,-4,-14,100,84,67,30.32,30.24,30.15,10,10,10,15,6,18,0.00,1,,211
2014-2-3,17,4,-9,7,-1,-11,95,77,59,30.51,30.34,30.22,10,9,2,18,6,23,T,4,Snow,351
2014-2-4,4,0,-4,-6,-8,-10,78,70,62,30.72,30.62,30.42,10,10,10,17,11,20,0.00,7,,7
2014-2-5,2,-6,-15,-7,-10,-18,78,70,62,30.75,30.70,30.59,10,10,8,21,13,25,T,5,,314
2014-2-6,6,-5,-16,-3,-11,-18,87,76,65,30.66,30.46,30.30,10,10,10,21,11,24,0.00,2,,260
2014-2-7,10,-4,-18,-2,-11,-20,90,74,58,30.28,30.19,30.12,10,10,9,14,8,17,0.00,0,,194
2014-2-8,10,1,-9,1,-6,-13,92,79,66,30.42,30.22,30.09,10,10,9,14,7,19,0.00,1,,6
2014-2-9,4,-6,-16,-6,-12,-19,91,77,62,30.57,30.47,30.32,10,10,5,20,9,23,T,2,Snow,303
2014-2-10,1,-9,-20,-7,-14,-23,87,78,69,30.60,30.55,30.44,10,10,9,12,4,13,0.00,0,,146
2014-2-11,25,9,-7,23,12,-11,96,86,76,30.40,30.05,29.90,10,6,1,26,15,33,0.06,5,Snow,223
2014-2-12,23,9,-6,19,5,-7,87,78,69,30.25,29.98,29.48,10,10,8,26,13,33,T,2,,175
2014-2-13,38,22,5,29,7,-2,88,77,66,29.92,29.75,29.44,10,9,2,38,17,44,T,4,Snow,331
2014-2-14,13,6,-1,3,-2,-6,95,78,61,30.21,30.07,29.93,10,10,10,16,10,19,T,3,,25
2014-2-15,28,14,0,23,10,-3,92,83,74,30.25,29.92,29.65,10,10,6,26,14,31,T,5,,341
2014-2-16,24,6,-12,21,6,-13,95,86,77,30.25,29.98,29.65,10,10,6,24,10,29,0.00,2,,128
2014-2-17,41,25,9,28,22,11,100,78,55,29.81,29.74,29.61,10,9,4,29,11,37,T,2,Snow,249
2014-2-18,40,28,16,31,25,16,100,82,64,29.87,29.71,29.56,10,10,10,18,9,22,0.00,2,,255
2014-2-19,43,29,15,34,26,15,100,85,70,29.85,29.65,29.47,10,10,10,22,11,27,0.00,2,,206
2014-2-20,37,24,10,29,17,5,84,74,63,29.82,29.70,29.61,10,10,9,32,17,38,T,4,,309
2014-2-21,22,13,4,6,3,-2,80,64,47,29.97,29.85,29.77,10,10,10,22,13,27,0.00,0,,316
2014-2-22,20,11,2,5,1,-2,83,66,49,30.31,30.15,29.99,10,10,10,23,12,28,0.00,0,,311
2014-2-23,21,11,1,5,1,-2,95,71,47,30.48,30.41,30.32,10,10,10,22,11,27,0.00,1,,312
2014-2-24,7,-1,-9,2,-2,-12,87,80,72,30.55,30.42,30.33,10,5,1,17,10,20,0.10,6,Snow,2
2014-2-25,8,-4,-17,-3,-11,-20,92,78,63,30.58,30.52,30.43,10,10,10,28,13,33,0.00,1,,294
2014-2-26,25,6,-14,8,-4,-17,87,65,42,30.47,30.10,29.90,10,10,10,33,16,42,0.00,1,,294
2014-2-27,7,-5,-18,-4,-11,-21,81,67,53,30.27,30.12,29.87,10,10,10,16,9,20,0.00,0,,137
2014-2-28,18,9,-1,8,-1,-7,86,72,58,30.42,30.04,29.78,10,10,8,36,15,41,0.00,4,,319